Valley City, ND

2:46 PM CST on December 06, 2019 (GMT -0600)
Valley City

Weather History for KBAC - October, 2019

Change the Weather History Date:

Monday, October 7, 2019

  Actual Average (KJMS) Record (KJMS)
Temperature  
Mean Temperature 52 °F -  
Max Temperature 66 °F 60 °F 86 °F (1966)
Min Temperature 39 °F 36 °F 15 °F (1976)
Degree Days  
Heating Degree Days 12    
Growing Degree Days 2 (Base 50)    
Moisture  
Dew Point 39 °F    
Average Humidity 69    
Maximum Humidity 100    
Minimum Humidity 34    
Precipitation  
Precipitation 0.00 in - - ()
Sea Level Pressure  
Sea Level Pressure 30.01 in    
Wind  
Wind Speed 11 mph (SW)    
Max Wind Speed 20 mph    
Max Gust Speed 26 mph    
Visibility 10 miles    
Events      
Averages and records for this station are not official NWS values.
T = Trace of Precipitation, MM = Missing Value Source: NWS Daily Summary

Daily Weather History Graph

Daily Weather History Graph

Search for Another Location

Airport or City:

Astronomy

Oct. 07, 2019 Rise Set
Actual Time 7:38 AM CDT 7:00 PM CDT
Civil Twilight 7:08 AM CDT 7:30 PM CDT
Nautical Twilight 6:33 AM CDT 8:05 PM CDT
Astronomical Twilight 5:57 AM CDT 8:41 PM CDT
Moon 4:48 PM CDT (10/7) 1:05 AM CDT (10/7)
Length of Visible Light 12h 22m
Length of Day
11h 21m
Waxing Gibbous, 69% of the Moon is Illuminated
Oct 7
Waxing Gibbous
Oct 13
Full
Oct 21
Last Quarter
Oct 27
New
Nov 4
First Quarter

Hourly Weather History & Observations

Time (CDT) Temp. Windchill Dew Point Humidity Pressure Visibility Wind Dir Wind Speed Gust Speed Precip Events Conditions
12:15 AM 44.6 °F 37.8 °F 41.0 °F 87% 30.05 in 10.0 mi WSW 15.0 mph - N/A   Clear
12:35 AM 44.6 °F 38.1 °F 41.0 °F 87% 30.05 in 10.0 mi WSW 13.8 mph - N/A   Clear
12:55 AM 44.6 °F 37.8 °F 39.2 °F 81% 30.06 in 10.0 mi West 15.0 mph - N/A   Clear
1:15 AM 44.6 °F 38.4 °F 39.2 °F 81% 30.06 in 10.0 mi WSW 12.7 mph - N/A   Clear
1:35 AM 44.6 °F 38.4 °F 39.2 °F 81% 30.06 in 10.0 mi West 12.7 mph - N/A   Clear
1:55 AM 44.6 °F 38.1 °F 39.2 °F 81% 30.06 in 10.0 mi West 13.8 mph - N/A   Clear
2:15 AM 44.6 °F 38.1 °F 39.2 °F 81% 30.07 in 10.0 mi West 13.8 mph - N/A   Clear
2:35 AM 44.6 °F 38.8 °F 39.2 °F 81% 30.07 in 10.0 mi West 11.5 mph - N/A   Clear
2:55 AM 42.8 °F 36.6 °F 39.2 °F 87% 30.07 in 10.0 mi West 11.5 mph - N/A   Clear
3:15 AM 42.8 °F 37.0 °F 39.2 °F 87% 30.07 in 10.0 mi West 10.4 mph - N/A   Clear
3:35 AM 42.8 °F 36.2 °F 39.2 °F 87% 30.08 in 10.0 mi West 12.7 mph - N/A   Clear
3:55 AM 42.8 °F 36.6 °F 39.2 °F 87% 30.08 in 10.0 mi West 11.5 mph - N/A   Clear
4:15 AM 42.8 °F 36.6 °F 39.2 °F 87% 30.08 in 10.0 mi West 11.5 mph - N/A   Clear
4:35 AM 42.8 °F 36.2 °F 39.2 °F 87% 30.08 in 10.0 mi West 12.7 mph - N/A   Clear
4:55 AM 41.0 °F 35.2 °F 39.2 °F 93% 30.08 in 10.0 mi West 9.2 mph - N/A   Clear
5:15 AM 41.0 °F 35.2 °F 39.2 °F 93% 30.09 in 10.0 mi West 9.2 mph - N/A   Clear
5:35 AM 39.2 °F 33.0 °F 39.2 °F 100% 30.09 in 10.0 mi West 9.2 mph - N/A   Clear
5:55 AM 41.0 °F 36.4 °F 41.0 °F 100% 30.09 in 10.0 mi West 6.9 mph - N/A   Clear
6:15 AM 39.2 °F 34.2 °F 39.2 °F 100% 30.09 in 10.0 mi West 6.9 mph - N/A   Clear
6:35 AM 39.2 °F - 39.2 °F 100% 30.10 in 10.0 mi Calm Calm - N/A   Clear
6:55 AM 39.2 °F - 39.2 °F 100% 30.09 in 10.0 mi Calm Calm - N/A   Clear
7:15 AM 39.2 °F - 39.2 °F 100% 30.09 in 10.0 mi Calm Calm - N/A   Clear
7:35 AM 39.2 °F 35.9 °F 39.2 °F 100% 30.09 in 10.0 mi South 4.6 mph - N/A   Clear
7:55 AM 39.2 °F 35.9 °F 39.2 °F 100% 30.09 in 10.0 mi SSE 4.6 mph - N/A   Clear
8:35 AM 39.2 °F 35.0 °F 39.2 °F 100% 30.10 in 10.0 mi SSW 5.8 mph - N/A   Clear
9:15 AM 44.6 °F 42.2 °F 41.0 °F 87% 30.10 in 10.0 mi SW 4.6 mph - N/A   Clear
9:35 AM 46.4 °F 43.5 °F 39.2 °F 76% 30.10 in 10.0 mi SW 5.8 mph - N/A   Clear
9:55 AM 50.0 °F - 39.2 °F 66% 30.11 in 10.0 mi SW 6.9 mph - N/A   Clear
10:15 AM 50.0 °F - 39.2 °F 66% 30.10 in 10.0 mi WSW 6.9 mph - N/A   Clear
10:35 AM 51.8 °F - 39.2 °F 62% 30.10 in 10.0 mi WSW 4.6 mph - N/A   Clear
10:55 AM 53.6 °F - 39.2 °F 58% 30.10 in 10.0 mi SW 6.9 mph - N/A   Clear
11:15 AM 55.4 °F - 39.2 °F 54% 30.09 in 10.0 mi SW 8.1 mph 13.8 mph N/A   Clear
11:35 AM 57.2 °F - 39.2 °F 51% 30.09 in 10.0 mi SW 10.4 mph - N/A   Clear
11:55 AM 59.0 °F - 39.2 °F 48% 30.08 in 10.0 mi WSW 12.7 mph - N/A   Clear
12:15 PM 60.8 °F - 39.2 °F 45% 30.07 in 10.0 mi SW 15.0 mph - N/A   Clear
12:35 PM 60.8 °F - 39.2 °F 45% 30.06 in 10.0 mi SW 10.4 mph 18.4 mph N/A   Clear
12:55 PM 62.6 °F - 37.4 °F 39% 30.06 in 10.0 mi WSW 13.8 mph - N/A   Clear
1:15 PM 62.6 °F - 35.6 °F 37% 30.05 in 10.0 mi SW 19.6 mph - N/A   Clear
1:35 PM 64.4 °F - 37.4 °F 37% 30.04 in 10.0 mi SW 16.1 mph 21.9 mph N/A   Clear
1:55 PM 64.4 °F - 35.6 °F 34% 30.03 in 10.0 mi SW 16.1 mph 24.2 mph N/A   Clear
2:15 PM 64.4 °F - 35.6 °F 34% 30.01 in 10.0 mi SW 17.3 mph 25.3 mph N/A   Clear
2:35 PM 64.4 °F - 35.6 °F 34% 30.00 in 10.0 mi SW 16.1 mph 21.9 mph N/A   Clear
2:55 PM 64.4 °F - 37.4 °F 37% 30.00 in 10.0 mi SSW 15.0 mph 24.2 mph N/A   Clear
3:15 PM 66.2 °F - 37.4 °F 35% 29.99 in 10.0 mi SSW 16.1 mph - N/A   Clear
3:35 PM 64.4 °F - 37.4 °F 37% 29.98 in 10.0 mi SW 12.7 mph 23.0 mph N/A   Clear
3:55 PM 64.4 °F - 37.4 °F 37% 29.98 in 10.0 mi SW 17.3 mph - N/A   Clear
4:15 PM 66.2 °F - 37.4 °F 35% 29.97 in 10.0 mi SW 16.1 mph 26.5 mph N/A   Clear
4:35 PM 64.4 °F - 37.4 °F 37% 29.96 in 10.0 mi SSW 18.4 mph - N/A   Clear
4:55 PM 64.4 °F - 37.4 °F 37% 29.96 in 10.0 mi SSW 13.8 mph 20.7 mph N/A   Clear
5:15 PM 64.4 °F - 37.4 °F 37% 29.95 in 10.0 mi SSW 15.0 mph 21.9 mph N/A   Clear
5:35 PM 64.4 °F - 39.2 °F 40% 29.94 in 10.0 mi SSW 16.1 mph - N/A   Clear
5:55 PM 62.6 °F - 39.2 °F 42% 29.94 in 10.0 mi SSW 10.4 mph - N/A   Clear
6:15 PM 60.8 °F - 41.0 °F 48% 29.93 in 10.0 mi SSW 9.2 mph - N/A   Clear
6:35 PM 57.2 °F - 41.0 °F 55% 29.93 in 10.0 mi South 9.2 mph - N/A   Clear
6:55 PM 55.4 °F - 41.0 °F 58% 29.92 in 10.0 mi South 6.9 mph - N/A   Clear
7:15 PM 53.6 °F - 41.0 °F 62% 29.92 in 10.0 mi South 6.9 mph - N/A   Clear
7:35 PM 51.8 °F - 39.2 °F 62% 29.92 in 10.0 mi South 5.8 mph - N/A   Clear
7:55 PM 50.0 °F - 41.0 °F 71% 29.91 in 10.0 mi South 6.9 mph - N/A   Clear
8:15 PM 48.2 °F - 41.0 °F 76% 29.91 in 10.0 mi South 6.9 mph - N/A   Clear
8:35 PM 46.4 °F 42.4 °F 41.0 °F 81% 29.91 in 7.0 mi South 8.1 mph - N/A   Clear
8:55 PM 48.2 °F - 41.0 °F 76% 29.91 in 10.0 mi South 6.9 mph - N/A   Clear
9:15 PM 48.2 °F - 41.0 °F 76% 29.90 in 10.0 mi South 8.1 mph - N/A   Clear
9:35 PM 48.2 °F - 41.0 °F 76% 29.89 in 10.0 mi South 8.1 mph - N/A   Clear
9:55 PM 46.4 °F 42.4 °F 41.0 °F 81% 29.89 in 10.0 mi South 8.1 mph - N/A   Clear
10:15 PM 46.4 °F 42.4 °F 41.0 °F 81% 29.88 in 10.0 mi South 8.1 mph - N/A   Clear
10:35 PM 46.4 °F 41.5 °F 41.0 °F 81% 29.87 in 10.0 mi South 10.4 mph - N/A   Clear
10:55 PM 48.2 °F - 42.8 °F 82% 29.87 in 10.0 mi South 8.1 mph - N/A   Clear
11:15 PM 48.2 °F - 41.0 °F 76% 29.86 in 10.0 mi South 8.1 mph - N/A   Clear
11:35 PM 48.2 °F - 41.0 °F 76% 29.85 in 10.0 mi South 8.1 mph - N/A   Clear
11:55 PM 48.2 °F - 41.0 °F 76% 29.84 in 10.0 mi South 10.4 mph - N/A   Clear